This demonstration page uses our WeatherBlox Daily Observations layout. Learn more.

Hourly Observations for October 26, 2017

Temp ( °F °C ) Dew Point ( °F °C ) Humidity (%) Winds ( mph kmh ) Pressure ( in mb ) Visibility ( mi km ) Precip ( " mm )
12:54 am 00:54 Clear 50 10 38 3.3 63 63 undefined N/A 29.56 1001 10 16.09344 0 0
1:54 am 01:54 Clear 48 8.9 38 3.3 68 68 undefined N/A 29.53 1000 10 16.09344 0 0
2:54 am 02:54 Clear 48 8.9 38 3.3 68 68 undefined N/A 32.45 1099 10 16.09344 0 0
3:54 am 03:54 Clear 48 8.9 37 2.8 66 66 undefined N/A 32.42 1098 10 16.09344 0 0
4:54 am 04:54 Clear 48 8.9 38 3.3 68 68 undefined N/A 32.42 1098 10 16.09344 0 0
5:54 am 05:54 Clear 42 5.6 36 2.2 79 79 undefined N/A 32.45 1099 10 16.09344 0 0
6:54 am 06:54 Clear 43 6.1 36 2.2 76 76 WSW 3 6 29.53 1000 10 16.09344 0 0
7:54 am 07:54 Sunny 41 5 35 1.7 79 79 NW 8 13 29.56 1001 10 16.09344 0 0
8:54 am 08:54 Sunny 58 14.4 39 3.9 50 50 NNW 7 11 29.59 1002 10 16.09344 0 0
9:54 am 09:54 Sunny 62 16.7 37 2.8 40 40 N 24 39 29.65 1004 10 16.09344 0 0
10:54 am 10:54 Sunny 61 16.1 37 2.8 41 41 N 23 37 29.71 1006 10 16.09344 0 0
11:54 am 11:54 Sunny 62 16.7 37 2.8 40 40 N 30 48 29.74 1007 10 16.09344 0 0
12:54 pm 12:54 Sunny 61 16.1 38 3.3 43 43 N 24 39 29.77 1008 10 16.09344 0 0
1:54 pm 13:54 Sunny 60 15.6 36 2.2 41 41 N 26 43 29.8 1009 10 16.09344 0 0
2:54 pm 14:54 Partly Cloudy 58 14.4 36 2.2 44 44 NNW 30 48 29.83 1010 9 14.484096 0 0
3:54 pm 15:54 Partly Cloudy 54 12.2 33 0.6 45 45 NNW 37 59 29.88 1012 10 16.09344 0 0
4:54 pm 16:54 Mostly Cloudy 51 10.6 32 0 48 48 undefined N/A 29.91 1013 10 16.09344 0 0
5:54 pm 17:54 Mostly Cloudy 48 8.9 30 -1.1 50 50 NNW 29 46 29.97 1015 10 16.09344 0 0
6:54 pm 18:54 Cloudy 46 7.8 29 -1.7 51 51 undefined N/A 30.03 1017 10 16.09344 0 0
6:58 pm 18:58 Cloudy 46 7.8 29 -1.7 51 51 NNW 26 43 30.06 1018 10 16.09344 0 0
7:54 pm 19:54 Cloudy 44 6.7 26 -3.3 49 49 NNW 31 50 30.06 1018 10 16.09344 0 0
8:54 pm 20:54 Cloudy 42 5.6 25 -3.9 51 51 undefined N/A 30.09 1019 10 16.09344 0 0
8:56 pm 20:56 Cloudy 42 5.6 25 -3.9 51 51 NNW 25 41 30.12 1020 10 16.09344 0 0
9:54 pm 21:54 Cloudy 40 4.4 24 -4.4 53 53 NNW 25 41 30.12 1020 10 16.09344 0 0
10:54 pm 22:54 Cloudy 39 3.9 22 -5.6 50 50 NNW 25 41 30.12 1020 10 16.09344 0 0
11:54 pm 23:54 Cloudy 39 3.9 21 -6.1 48 48 undefined N/A 30.12 1020 10 16.09344 0 0

Powered by AerisWeather